CW2751 Weather Reports


Display with metric or nautical units.
time (UTC)temp
F
wind
direction
speed
MPH
gust
MPH
rain 1hr
in
rain 24hr
in
rain mn
in
humidity
%
barometer
mb
20260510213041 67 248 5.0 0.0 0.00 0.00 0.00 43 1015.6
20260510211505 67 255 4.0 0.0 0.00 0.00 0.00 45 1016.0
20260510210025 66 229 2.0 0.0 0.00 0.00 0.00 45 1016.3
20260510204556 65 309 3.0 0.0 0.00 0.00 0.00 50 1016.8
20260510203003 65 258 4.0 0.0 0.00 0.00 0.00 48 1016.5
20260510201602 64 205 2.0 0.0 0.00 0.00 0.00 51 1016.9
20260510201506 64 230 2.0 0.0 0.00 0.00 0.00 50 1016.9
20260510200036 63 323 2.0 0.0 0.00 0.00 0.00 51 1017.0
20260510194557 64 213 4.0 0.0 0.00 0.00 0.00 52 1017.2
20260510193030 64 229 2.0 0.0 0.00 0.00 0.00 52 1017.3
20260510191537 63 251 3.0 0.0 0.00 0.00 0.00 52 1017.7
20260510190033 61 205 5.0 0.0 0.00 0.00 0.00 56 1017.7
20260510184555 61 268 3.0 0.0 0.00 0.00 0.00 57 1017.8
20260510183031 60 271 4.0 0.0 0.00 0.00 0.00 58 1018.2
20260510181540 59 182 2.0 0.0 0.00 0.00 0.00 63 1018.7
20260510180050 58 193 2.0 0.0 0.00 0.00 0.00 64 1019.3
20260510174545 58 327 3.0 0.0 0.00 0.00 0.00 66 1019.4
20260510173059 57 109 2.0 0.0 0.00 0.00 0.00 72 1019.3
20260510173001 57 107 2.0 0.0 0.00 0.00 0.00 71 1019.3
20260510171527 56 145 3.0 0.0 0.00 0.00 0.00 73 1019.5
20260510170015 54 110 1.0 0.0 0.00 0.00 0.00 77 1019.6
20260510164548 54 169 3.0 0.0 0.00 0.00 0.00 85 1019.2
20260510163057 53 164 3.0 0.0 0.00 0.00 0.00 88 1019.4
20260510161502 53 100 3.0 0.0 0.00 0.00 0.00 89 1019.4
20260510160027 51 80 4.0 0.0 0.00 0.00 0.00 91 1018.6
20260510154525 49 353 2.0 0.0 0.00 0.00 0.00 90 1018.9
20260510153023 49 80 3.0 0.0 0.00 0.00 0.00 90 1019.0
20260510151525 49 97 3.0 0.0 0.00 0.00 0.00 89 1019.3
20260510150030 49 31 4.0 0.0 0.00 0.00 0.00 89 1019.0
20260510144531 49 17 3.0 0.0 0.00 0.00 0.00 90 1019.0
20260510143004 49 70 4.0 0.0 0.00 0.00 0.00 89 1018.9
20260510141512 49 326 6.0 0.0 0.00 0.00 0.00 89 1018.8
20260510140019 49 357 4.0 0.0 0.00 0.00 0.00 89 1018.2
20260510134534 49 336 4.0 0.0 0.00 0.00 0.00 89 1017.8
20260510133057 49 1 3.0 0.0 0.00 0.00 0.00 89 1018.1
20260510131513 48 299 3.0 0.0 0.00 0.00 0.00 90 1017.9
20260510130028 49 349 2.0 0.0 0.00 0.00 0.00 90 1016.6
20260510124521 49 353 3.0 0.0 0.00 0.00 0.00 90 1016.3
20260510123110 49 44 2.0 0.0 0.00 0.00 0.00 90 1016.0
20260510123003 49 44 2.0 0.0 0.00 0.00 0.00 90 1016.0
20260510121522 48 45 2.0 0.0 0.00 0.00 0.00 90 1015.6
20260510120050 48 327 2.0 0.0 0.00 0.00 0.00 90 1014.4
20260510114554 48 27 2.0 0.0 0.00 0.00 0.00 90 1014.3
20260510113014 48 37 2.0 0.0 0.00 0.00 0.00 90 1014.2
20260510111519 48 326 1.0 0.0 0.00 0.00 0.00 89 1014.2
20260510110044 48 319 2.0 0.0 0.00 0.00 0.00 89 1014.1
20260510104602 48 262 3.0 0.0 0.00 0.00 0.00 89 1014.1
20260510103052 48 299 2.0 0.0 0.00 0.00 0.00 89 1014.1
20260510101554 49 326 3.0 0.0 0.00 0.00 0.00 89 1013.9
20260510100106 49 310 4.0 0.0 0.00 0.00 0.00 89 1013.1
20260510100001 49 354 5.0 0.0 0.00 0.00 0.00 89 1013.1
20260510094508 49 326 3.0 0.0 0.00 0.00 0.00 89 1012.7
20260510093016 49 358 2.0 0.0 0.00 0.00 0.00 89 1012.4
20260510091539 49 17 2.0 0.0 0.00 0.00 0.00 89 1012.0
20260510090033 49 17 2.0 0.0 0.00 0.00 0.00 89 1012.0
20260510084539 49 11 1.0 0.0 0.00 0.00 0.00 88 1011.9
20260510083038 49 35 1.0 0.0 0.00 0.00 0.00 88 1011.4
20260510081546 49 37 5.0 0.0 0.00 0.00 0.00 88 1011.5
20260510080057 50 51 6.0 0.0 0.00 0.00 0.00 87 1011.7
20260510074556 50 55 6.0 0.0 0.00 0.00 0.00 87 1011.3
20260510073037 51 62 4.0 0.0 0.00 0.00 0.00 87 1011.2
20260510071540 50 226 1.0 0.0 0.00 0.00 0.00 86 1012.0
20260510070107 50 254 2.0 0.0 0.00 0.00 0.00 86 1012.4
20260510070001 50 292 2.0 0.0 0.00 0.00 0.00 86 1012.4
20260510064512 50 75 1.0 0.0 0.00 0.00 0.00 86 1011.8
20260510063017 50 49 3.0 0.0 0.00 0.00 0.00 85 1011.3
20260510061555 50 78 7.0 0.0 0.00 0.00 0.00 85 1010.7
20260510060059 50 104 9.0 0.0 0.00 0.00 0.00 86 1010.4
20260510054507 51 92 9.0 0.0 0.00 0.00 0.00 86 1010.4
20260510053032 51 89 7.0 0.0 0.00 0.00 0.00 86 1010.6
20260510051544 51 75 9.0 0.0 0.00 0.00 0.00 85 1010.6
20260510050044 51 63 13.0 0.0 0.00 0.00 0.00 84 1010.5
20260510044614 52 39 9.0 0.0 0.00 0.00 0.00 82 1010.6
20260510044505 52 44 9.0 0.0 0.00 0.00 0.00 82 1010.6
20260510043010 53 25 10.0 0.0 0.00 0.00 0.00 80 1010.7
20260510041526 55 48 11.0 0.0 0.00 0.00 0.00 75 1010.8
20260510040047 58 344 12.0 0.0 0.00 0.00 0.00 65 1011.5
20260510034516 59 323 10.0 0.0 0.00 0.00 0.00 53 1011.2
20260510033020 59 25 15.0 0.0 0.00 0.00 0.00 50 1009.1
20260510031536 58 27 15.0 0.0 0.00 0.00 0.00 52 1006.7
20260510030038 59 41 9.0 0.0 0.00 0.00 0.00 52 1006.6
20260510024549 59 39 10.0 0.0 0.00 0.00 0.00 53 1005.6
20260510023046 59 65 8.0 0.0 0.00 0.00 0.00 52 1004.8
20260510021552 60 42 8.0 0.0 0.00 0.00 0.00 52 1004.7
20260510020100 62 69 6.0 0.0 0.00 0.00 0.00 52 1005.2
20260510020003 62 66 6.0 0.0 0.00 0.00 0.00 52 1004.8
20260510014509 63 63 8.0 0.0 0.00 0.00 0.00 48 1004.8
20260510013018 65 72 8.0 0.0 0.00 0.00 0.00 46 1004.4
20260510011541 66 86 9.0 0.0 0.00 0.00 0.00 45 1003.5
20260510010058 68 61 7.0 0.0 0.00 0.00 0.00 46 1003.0
20260510004526 69 94 7.0 0.0 0.00 0.00 0.00 41 1002.5
20260510003055 69 87 15.0 0.0 0.00 0.00 0.00 39 1002.3
20260510001507 76 68 16.0 0.0 0.00 0.00 0.00 28 1001.5
20260510000011 77 76 11.0 0.0 0.00 0.00 0.00 27 1001.5
20260509234526 78 46 12.0 0.0 0.00 0.00 0.00 26 1001.0
20260509233030 79 72 8.0 0.0 0.00 0.00 0.00 24 1000.6
20260509231607 79 34 8.0 0.0 0.00 0.00 0.00 23 1000.5
20260509230023 79 35 8.0 0.0 0.00 0.00 0.00 24 1000.9
20260509224535 79 39 7.0 0.0 0.00 0.00 0.00 24 1000.8
20260509223048 79 20 10.0 0.0 0.00 0.00 0.00 23 1000.9
20260509221558 80 32 9.0 0.0 0.00 0.00 0.00 23 1000.7
20260509220016 79 337 9.0 0.0 0.00 0.00 0.00 24 1000.6
20260509214515 80 326 9.0 0.0 0.00 0.00 0.00 24 1000.6